ARIANE 3 DEB, 27026

Orbit data source: Space-Track

ARIANE 3 DEB, 27026 is space debris in HEO originally from a launch on Thu, 08 Sep 1988 UTC launched from the French Guiana (FRGUI). Debris objects in space refer to the collection of defunct objects orbiting the Earth. Examples of debris include non-operational satellites, rocket bodies, and fragments generated from explosions, collisions, or faulty payload assembly.

Loading next visibility...
Identifier
27026, 1988-081J
Orbit
HEO
Country
Flag of FRFR
Related business
Manufacturer
Unknown
Mission
Spacecraft
Bus & Motor
Unknown
Mass
Unknown
Launch date (UTC)
1988-09-08 (37 years ago)
Launch vehicle
Unknown
Launch site
French Guiana (FRGUI)
Object type
Payload
Rocket body
Debris
Shape & HBR
Unknown shape, 1.1 m
Radar Cross Section
Medium (>0.1 m² and <1 m²)

Expand to show TLE details & history
Last TLE update: 17 hours ago

TLE from 17 hours ago
0 ARIANE 3 DEB
1 27026U 88081J   25346.83287929  .00000532  00000-0  63713-2 0  9992
2 27026   7.5963 259.6199 7088762 126.4854  23.4128  2.35586283262000
Epoch: 2025-12-12T19:59Z
TLE epoch observation values (Epoch: 2025-12-12T19:59:20.770Z)
Latitude
-6.03811°
Longitude
110.42012°
Altitude
8,394.813 km
Speed
6.103 km/s
True Right ascension
08h 48m 06s
True Declination
-6° 01' 15"
Sunlit
Object was in daylight at epoch
Visualization orbit readout
Latitude
Unknown
Longitude
Unknown
Altitude
Unknown
Speed
Unknown
Apparent Right ascension
Unknown
Apparent Declination
Unknown
Sunlit
N/A
Visualization observer readout
Local Sidereal Time
11:49:43
Azimuth
Unknown
Elevation
Unknown
Doppler factor
Unknown
Orbital elements
Apogee altitude
34,401.119 km
Perigee altitude
569.009 km
Semi-major axis
23,863.201 km
Eccentricity
0.70888
Inclination
7.5963°
RAAN
259.6199°
Arg. of periapsis
126.4854°
True anomaly
106.39606°
Mean anomaly
23.4128°
Eccentric anomaly
57.77019°
Mean motion
0.58878 °/min
Orbital period
611.44 mins
BSTAR
0.0063713
Loading maneuver chart data...
Computing Atmospheric mass density...
Loading historical data...
Loading historical data...
Loading historical data...
Loading historical data...
Loading historical data...
Loading historical data...
Loading historical data...

Documentation

Showing up to 5 results
|